Regional Weather Roundup
Issued by NWS

Home | Current Version | Previous Version | Graphics & Text | Print | Product List | Glossary On
Versions: 1 2 3 4 5 6 7 8 9 10 11 12 13 14 15 16 17 18 19 20 21 22 23 24 25 26 27 28 29 30 31 32 33 34 35 36 37 38 39 40 41 42 43 44 45 46 47 48 49 50
000
ASUS43 KMKX 030021
RWRWI

WISCONSIN REGIONAL WEATHER ROUNDUP
NATIONAL WEATHER SERVICE MILWAUKEE/SULLIVAN WI
700 PM CDT WED SEP 02 2015

NOTE: "FAIR" INDICATES FEW OR NO CLOUDS BELOW 12,000 FEET WITH NO
SIGNIFICANT WEATHER AND/OR OBSTRUCTIONS TO VISIBILITY.

WIZ001-002-006>008-014>016-023>028-030100-
NORTHWEST WISCONSIN

CITY           SKY/WX    TMP DP  RH WIND       PRES   REMARKS
SUPERIOR ARPT  CLEAR     63  61  92 NE6       29.93S
6HR MIN TEMP:  63; 6HR MAX TEMP:  79;

ASHLAND        PTCLDY    70  67  90 NE9       29.94S
6HR MIN TEMP:  67; 6HR MAX TEMP:  76;

HAYWARD        CLOUDY    71  66  84 CALM      29.95S
6HR MIN TEMP:  70; 6HR MAX TEMP:  73;

SIREN          CLOUDY    72  67  85 NE3       29.92F
6HR MIN TEMP:  69; 6HR MAX TEMP:  75;

CUMBERLAND     CLOUDY    68  64  88 NE6       29.93S
RICE LAKE      CLOUDY    69  66  90 CALM      29.93S
6HR MIN TEMP:  66; 6HR MAX TEMP:  70; 6HR PCP:  0.22;

CHETEK         CLOUDY   N/A N/A N/A MISG      29.92S
                                      6HR PCP:  0.02;

LADYSMITH      CLOUDY    70  67  90 NE3       29.95S
6HR MIN TEMP:  67; 6HR MAX TEMP:  71;

EAU CLAIRE     CLOUDY    71  66  84 NE5       29.88S
6HR MIN TEMP:  66; 6HR MAX TEMP:  74; 6HR PCP:  1.16;

MENOMONIE      CLOUDY    72  69  88 N3        29.89S
6HR MIN TEMP:  68; 6HR MAX TEMP:  75;

NEW RICHMOND   CLOUDY    71  68  92 CALM      29.90S
6HR MIN TEMP:  66; 6HR MAX TEMP:  72; 6HR PCP:  0.01;

OSCEOLA        CLOUDY    71  71 100 CALM      29.92S
6HR MIN TEMP:  67; 6HR MAX TEMP:  71; 6HR PCP:  0.01;

$$

WIZ003>005-009-010-017-018-030100-
NORTH CENTRAL WISCONSIN

CITY           SKY/WX    TMP DP  RH WIND       PRES   REMARKS
MANITOWISH WTR DRIZZLE   66  66 100 E5        29.97S
6HR MIN TEMP:  66; 6HR MAX TEMP:  69; 6HR PCP:  0.01;

ARBOR VITAE    HVY RAIN  67  65  94 NE8       29.96S
6HR MIN TEMP:  67; 6HR MAX TEMP:  69; 6HR PCP:  0.42;

WOODRUFF       HVY RAIN  67  65  94 NE8       29.96S
6HR MIN TEMP:  67; 6HR MAX TEMP:  69; 6HR PCP:  0.42;

RHINELANDER    CLOUDY    70  67  90 NE5       29.95S
6HR MIN TEMP:  68; 6HR MAX TEMP:  71; 6HR PCP:  0.18;

EAGLE RIVER    CLOUDY    68  67  99 N8        29.95S
6HR MIN TEMP:  67; 6HR MAX TEMP:  69;

LAND O LAKES   HVY RAIN  67  65  96 N3        29.99S
6HR MIN TEMP:  67; 6HR MAX TEMP:  70; 6HR PCP:  0.32;

PHILLIPS       CLOUDY    68  67  97 N6        29.94S
6HR MIN TEMP:  65; 6HR MAX TEMP:  68; 6HR PCP:  0.34;

TOMAHAWK       CLOUDY    68  67  95 CALM      29.94S FOG
6HR MIN TEMP:  67; 6HR MAX TEMP:  69;

MEDFORD        CLOUDY    69  68  97 NE3       29.92S
6HR MIN TEMP:  67; 6HR MAX TEMP:  69; 6HR PCP:  0.02;

MERRILL        CLOUDY    70  70 100 CALM      29.92F
6HR MIN TEMP:  70; 6HR MAX TEMP:  75; 6HR PCP:  0.01;

$$

WIZ029-030-035-036-043>047-030100-
CENTRAL WISCONSIN

CITY           SKY/WX    TMP DP  RH WIND       PRES   REMARKS
WAUSAU         LGT RAIN  71  67  87 E7        29.90F FOG
6HR MIN TEMP:  70; 6HR MAX TEMP:  84; 6HR PCP:  0.18;

MOSINEE        MOCLDY    70  70 100 NE9       29.92R
MARSHFIELD     CLOUDY    74  64  71 N6        29.90S
6HR MIN TEMP:  74; 6HR MAX TEMP:  86; 6HR PCP: TRACE;

STEVENS POINT  CLOUDY    79  65  62 SW6       29.90R HX  81
6HR MIN TEMP:  79; 6HR MAX TEMP:  85;

WAUPACA        PTCLDY    82  65  56 SW6       29.89R HX  84
6HR MIN TEMP:  82; 6HR MAX TEMP:  90;

WAUTOMA        CLEAR     83  66  56 SW8       29.88F HX  85
6HR MIN TEMP:  83; 6HR MAX TEMP:  89;

WISC RAPIDS    PTCLDY    81  65  58 W8        29.89R HX  83
6HR MIN TEMP:  81; 6HR MAX TEMP:  87;

CAMP DOUGLAS   MOCLDY    81  73  78 SW8       29.88F HX  85
$$

WIZ011>013-019>022-031-037>040-048>050-030100-
NORTHEAST WISCONSIN

CITY           SKY/WX    TMP DP  RH WIND       PRES   REMARKS
ANTIGO         HVY RAIN  68  67  98 E6        29.94S
SHAWANO        CLOUDY    74  65  74 NE12      29.91R
6HR MIN TEMP:  74; 6HR MAX TEMP:  88;

OCONTO         MOCLDY    67  67 100 E5        29.91F
6HR MIN TEMP:  67; 6HR MAX TEMP:  89;

STURGEON BAY   MOCLDY    68  64  88 E9        29.94F
GREEN BAY      CLEAR     74  67  78 NE14      29.89F
6HR MIN TEMP:  74; 6HR MAX TEMP:  88;

MANITOWOC      PTCLDY    72  66  81 MISG      29.90F
6HR MIN TEMP:  72; 6HR MAX TEMP:  89;

APPLETON       PTCLDY    81  64  57 SE13      29.86F HX  82
CLINTONVILLE   CLOUDY    75  64  69 NE5       29.89R
OSHKOSH        CLEAR     78  69  73 S10       29.88F HX  80
6HR MIN TEMP:  78; 6HR MAX TEMP:  87;

$$

WIZ032>034-041-042-053>061-030100-
SOUTHWEST WISCONSIN

CITY           SKY/WX    TMP DP  RH WIND       PRES   REMARKS
LA CROSSE      PTCLDY    81  70  69 S10       29.87F HX  84
6HR MIN TEMP:  81; 6HR MAX TEMP:  87;

SPARTA         CLEAR     79  67  65 SW6       29.89F HX  81
6HR MIN TEMP:  79; 6HR MAX TEMP:  87;

VIROQUA          N/A     78  69  75 S8        29.92F HX  80
6HR MIN TEMP:  78; 6HR MAX TEMP:  84;

BOSCOBEL       CLOUDY    82  68  62 S6        29.90F HX  85
6HR MIN TEMP:  82; 6HR MAX TEMP:  90;

PRAIRIE DU CHI CLOUDY    81  66  60 SE3       29.90F HX  83
6HR MIN TEMP:  81; 6HR MAX TEMP:  86;

PLATTEVILLE    CLOUDY    80  72  76 S7        29.95S HX  84
6HR MIN TEMP:  79; 6HR MAX TEMP:  83;

$$

WIZ056-057-062-063-064-067-068-030100-
SOUTH CENTRAL WISCONSIN

CITY           SKY/WX    TMP DP  RH WIND       PRES   REMARKS
REEDSBURG      PTCLDY    79  68  70 S9        29.90F HX  81
6HR MIN TEMP:  79; 6HR MAX TEMP:  86;

BARABOO/DELLS  CLEAR     80  65  60 S9        29.90F HX  81
6HR MIN TEMP:  80; 6HR MAX TEMP:  87;

LONE ROCK      CLOUDY    81  69  67 SW5       29.91F HX  84
6HR MIN TEMP:  81; 6HR MAX TEMP:  87;

MINERAL POINT  MOCLDY    79  70  73 S7        29.94F HX  81
MADISON        PTCLDY    82  68  62 S9        29.92F HX  85
6HR MIN TEMP:  82; 6HR MAX TEMP:  85;

MIDDLETON      CLEAR    N/A N/A N/A SW9       29.93F
WATERTOWN      CLEAR     80  68  67 S5        29.92F HX  82
6HR MIN TEMP:  80; 6HR MAX TEMP:  88;

MONROE         CLOUDY    79  68  69 S10       29.95S HX  81
JANESVILLE     PTCLDY    82  70  65 SW7       29.94F HX  86
$$

WIZ051-052-058>065-066-070>072-030100-
SOUTHEAST WISCONSIN

CITY           SKY/WX    TMP DP  RH WIND       PRES   REMARKS
MILWAUKEE      MOCLDY    85  68  56 SW8       29.94S HX  88
6HR MIN TEMP:  85; 6HR MAX TEMP:  89;

WAUKESHA       CLEAR     81  68  65 SW7       29.96F HX  83
MILWAUKEE/TIMM CLEAR     82  64  54 SW8       29.95S HX  84
RACINE         CLOUDY    83  69  62 SW7       29.96S HX  86
6HR MIN TEMP:  81; 6HR MAX TEMP:  90;

BURLINGTON     MOCLDY    80  70  71 SW3       29.95S HX  83
6HR MIN TEMP:  80; 6HR MAX TEMP:  87;

KENOSHA        CLOUDY    83  71  67 SW5       29.95S HX  87
6HR MIN TEMP:  83; 6HR MAX TEMP:  91;

FOND DU LAC    CLEAR     80  69  69 S7        29.90F HX  83
6HR MIN TEMP:  80; 6HR MAX TEMP:  86;

SHEBOYGAN      PTCLDY    79  70  74 S7        29.91F HX  82
6HR MIN TEMP:  79; 6HR MAX TEMP:  88;

WEST BEND      PTCLDY    79  64  61 CALM      29.92F HX  81
JUNEAU         CLEAR     79  69  71 S7        29.93F HX  81
6HR MIN TEMP:  79; 6HR MAX TEMP:  85; 6HR PCP:  0.03;

$$

LSZ147-162-030100-
LAKE SUPERIOR

STATION/POSITION TIME  TEMP    WIND        PRES    WAVE
                       AIR SEA DIR/SP/G            HT/PER
                 (UTC) (F)     (DEG/KT/KT) (MB)    (FT/S)
W MID LAKE BUOY  2350   59 56   70/  6/  8 1014.0F   0
DEVILS ISLAND    0000   59      70/  7/  8 1014.1S
PORT WING        2300   62      30/ 13/ 15 1013.5F
SAXON HARBOR     2340   66     320/  3/  4 1013.5S
$$

LMZ867-665-643>646-030100-
LAKE MICHIGAN

STATION/POSITION TIME  TEMP    WIND        PRES    WAVE
                       AIR SEA DIR/SP/G            HT/PER
                 (UTC) (F)     (DEG/KT/KT) (MB)    (FT/S)
CHAMBERS ISLAND  2300   69      50/  2/  3 1013.5F
S GREEN BAY BUOY 2300   70 67   80/ 10/ 12 1014.5


USA.gov is the U.S. government's official web portal to all federal, state and local government web resources and services.